Weather in Vahdat

Tajikistan     38°33′41″N   69°00′59″E
temp.,
°C
wind,
m/s
gust,
m/s
humid.,
%
clouds,
%
prec.,
mm/h
press.,
hPa
HPBL,
m
17 april, sat
sat1723:00+12ne22520 0.0 101717
02:00+11ene33541 0.0 101621
05:00+10ne22542 0.0 101716
08:00+14ene23513 0.0 1018166
11:00+20sw223810 0.0 10171242
14:00+21sw223361 0.0 10152836
17:00+19sw235099 0.0 1015500
20:00+13ne2266100 0.4 101718
18 april, sun
sun1823:00+12ene3469100 1.3 101849
02:00+11ne1174100 0.6 101722
05:00+11ne4681100 3.3 1019118
08:00+12e2371100 0.8 1021306
11:00+13ne2269100 3.8 1023422
14:00+15ese32607 1.4 1022864
17:00+15ese225911 3.3 1021629
20:00+11ene33728 0.2 102328
19 april, mon
mon1923:00+9ene45735 0.2 102260
02:00+8ene4469100 0.0 102151
05:00+8ene446685 0.0 102152
08:00+13ene34575 0.0 1019189
11:00+19ese23355 0.0 10161310
14:00+21sse12297 0.0 10121801
17:00+21sw224081 0.0 1010365
20:00+13ne33526 0.0 101326
20 april, tue
tue2023:00+11ene32435 0.0 101322
02:00+10ene22375 0.0 101316
05:00+10ene223990 0.0 101217
08:00+14ene01435 0.0 1013120
11:00+20sw123526 0.0 1012710
14:00+21sse2233100 0.0 10102311
17:00+13nne3580100 2.8 1013269
20:00+11ene4783100 4.1 1013125
21 april, wed
wed2123:00+11ene3484100 5.8 101364
02:00+10ene118747 3.4 101318
05:00+10e339066 6.9 101485
08:00+12se117885 1.2 1015226
11:00+15ssw226365 5.9 1015659
14:00+17sse135358 5.9 1013953
17:00+16ne446414 8.0 1013255
20:00+10ene348114 0.9 101556